Location: Juniper Campground
(35.7953°N, 106.2814°W)
Time: 19:26:14
(UTC-06:00)

Envisat - Pass Details

Date: 23 August 2018
Orbit: 764 x 766 km, 98.2° (Epoch: 24 September)

Event Time Altitude Azimuth Distance (km) Brightness Sun altitude
Rises 21:24:12 0° 206° (SSW) 3,212 6.2 -19.5°
Reaches altitude 10° 21:27:16 10° 226° (SW) 2,291 5.6 -20.0°
Maximum altitude 21:30:32 17° 267° (W) 1,845 5.6 -20.6°
Drops below altitude 10° 21:33:49 10° 308° (NW) 2,301 6.6 -21.2°
Sets 21:36:56 0° 328° (NNW) 3,232 7.4 -21.7°
